Orbital Elements at Epoch 2459200.5 (2020-Dec-17.0) TDB
Reference: JPL 31 (heliocentric ecliptic J2000)
Element | Value | Uncertainty (1-sigma) | Units |
e | .08140748623391783 | 3.1159e-08 | |
a | 2.376320381014529 | 7.7773e-09 | au |
q | 2.182870112309711 | 7.1491e-08 | au |
i | 5.748440179375712 | 4.198e-06 | deg |
node | .3526752537204638 | 2.7862e-05 | deg |
peri | 136.9160888327961 | 3.7987e-05 | deg |
M | 125.1412583134793 | 2.5336e-05 | deg |
tp | 2458735.391867895914 (2019-Sep-08.89186790) | 9.3885e-05 | TDB |
period | 1337.999392159186 3.66 | 6.5686e-06 1.798e-08 | d yr |
n | .2690584181948341 | 1.3209e-09 | deg/d |
Q | 2.569770649719348 | 8.4104e-09 | au |
|
| | Orbit Determination Parameters
Additional Information
|